Regional Weather Roundup
Issued by NWS

Home | Current Version | Previous Version | Text Only | Print | Product List | Glossary Off
Versions: 1 2 3 4 5 6 7 8 9 10 11 12 13 14 15 16 17 18 19 20 21 22 23 24 25 26 27 28 29 30 31 32 33 34 35 36 37 38 39 40 41 42 43 44 45 46 47 48 49 50

000
ASUS45 KSLC 230910
RWRUT

UTAH REGIONAL WEATHER ROUNDUP
NATIONAL WEATHER SERVICE SALT LAKE CITY UT
300 AM MDT SAT AUG 23 2014

UTZ001>011-023>025-231000-

NORTHERN UTAH

CITY           SKY/WX    TMP DP  RH WIND       PRES   REMARKS
HILL AFB       MOCLDY    54  50  87 N9        30.03R
LOGAN          MOCLDY    53  50  89 CALM      30.02R
OGDEN          MOCLDY    54  50  86 NW6       30.01S
PROVO AIRPORT  CLOUDY    57  52  82 S10       30.03S
SALT LAKE CITY LGT RAIN  58  51  78 CALM      30.01R
VERNAL         CLOUDY    52  48  86 N7        30.06F
WENDOVER       CLOUDY    61  45  55 E6        30.01F
HEBER CITY     CLOUDY    52  50  93 CALM      30.07S
WEST JORDAN    CLOUDY    59  59 100 W3        30.03R

$$

UTZ012>022-026-027-231000-

SOUTHERN UTAH

CITY           SKY/WX    TMP DP  RH WIND       PRES   REMARKS
BRYCE CANYON   MOCLDY    50  47  89 CALM      30.19S
CEDAR CITY     PTCLDY    56  51  84 SW7       30.05F
MILFORD        CLOUDY    59  55  87 E7        30.03S
MOAB/CYNLANDS  MOCLDY    66  55  67 NW14      29.96R
PRICE          CLOUDY    57  48  72 NE3       30.05R
ST GEORGE      CLOUDY    77  50  38 S10       29.93R
KANAB          CLOUDY    64  50  59 S3        30.09S

$$

REGIONAL REPORTS     COLORADO/ARIZONA

CITY           SKY/WX    TMP DP  RH WIND       PRES   REMARKS
CRAIG, CO      LGT RAIN  52  47  83 W5        30.10S
GRAND JUNCTION CLOUDY    62  52  69 S8        30.00R
RIFLE          MOCLDY    56  53  90 NW3       30.03F
MONTROSE       CLOUDY    59  50  72 S5        30.08F
CORTEZ         CLOUDY    57  52  83 SE3       30.14F
PAGE, AZ       CLEAR     72  48  42 SW6       29.99S
GRAND CANYON     N/A    N/A N/A N/A MISG        N/A
KINGMAN        CLEAR     64  56  75 SE9       30.00S
FLAGSTAFF      CLOUDY    53  49  86 VRB3      30.22F

$$

REGIONAL REPORTS    NEVADA/IDAHO/WYOMING

CITY           SKY/WX    TMP DP  RH WIND       PRES   REMARKS
LAS VEGAS, NV  CLEAR     82  49  31 S18G25    29.80S
ELY            MOCLDY    53  50  89 N6        30.08S
ELKO           PTCLDY    51  37  58 E3        30.06R
POCATELLO, ID  MOCLDY    51  51 100 S3        30.02S
BURLEY         PTCLDY    47  44  90 SW5       30.01R
EVANSTON, WY   MOCLDY    45  43  93 CALM      30.11F
ROCK SPRINGS   LGT RAIN  46  44  93 S8        30.10F

$$



USA.gov is the U.S. government's official web portal to all federal, state and local government web resources and services.